User: anonymous   Login
Location: Godzisko
(49.9648°N, 19.4576°E)
Time: 09:02:18
(UTC+00:00)
Language:

Meteor 2-9 Rocket - Orbit

View from above orbital plane
View from above orbital plane
View from above satellite
View from above satellite

Ground track
Ground track

The orbit data is extracted from the following two-line orbital elements,

1 13719U 82116B   21166.85123611 -.00000006  00000-0 -99439-5 0  9999
2 13719  81.2546  10.3821 0071992 148.2483 223.8974 14.14673035986745
Epoch (UTC): 15 June 2021 20:25:46
Eccentricity: 0.0071992
inclination: 81.2546°
perigee height: 791 km
apogee height: 895 km
right ascension of ascending node: 10.3821°
argument of perigee: 148.2483°
revolutions per day: 14.14673035
mean anomaly at epoch: 223.8974°
orbit number at epoch: 98674

The dashed part of the orbit path shows where the satellite is in the earth's shadow,  

DLR